DW9783 Weather Reports


time (UTC)temp
C
wind
direction
speed
KPH
gust
KPH
rain 1hr
cm
rain 24hr
cm
rain mn
cm
humidity
%
barometer
mb
20260507164106 20 180 6.4 19.3 0.00 0.00 0.00 57 1010.9
20260507163004 19 180 3.2 12.9 0.00 0.00 0.00 57 1010.9
20260507162107 19 191 6.4 14.5 0.00 0.00 0.00 57 1011.0
20260507161107 20 184 8.0 17.7 0.00 0.00 0.00 55 1011.0
20260507160003 20 178 6.4 17.7 0.00 0.00 0.00 54 1010.8
20260507155106 21 183 8.0 17.7 0.00 0.00 0.00 52 1010.8
20260507154106 20 166 9.7 22.5 0.00 0.00 0.00 53 1010.7
20260507153107 21 163 9.7 22.5 0.00 0.00 0.00 54 1010.6
20260507152107 21 195 6.4 22.5 0.00 0.00 0.00 52 1010.6
20260507151003 21 190 6.4 17.7 0.00 0.00 0.00 53 1010.6
20260507150106 20 162 8.0 17.7 0.00 0.00 0.00 55 1010.6
20260507145003 20 171 11.3 22.5 0.00 0.00 0.00 56 1010.6
20260507144107 20 169 11.3 22.5 0.00 0.00 0.00 58 1010.6
20260507143107 20 161 8.0 17.7 0.00 0.00 0.00 57 1010.6
20260507142003 20 165 8.0 20.9 0.00 0.00 0.00 59 1010.6
20260507141106 20 175 11.3 22.5 0.00 0.00 0.00 61 1010.8
20260507140106 20 172 9.7 20.9 0.00 0.00 0.00 62 1010.8
20260507135003 20 166 6.4 17.7 0.00 0.00 0.00 61 1010.9
20260507134107 19 165 8.0 19.3 0.00 0.00 0.00 62 1010.9
20260507133107 19 168 11.3 19.3 0.00 0.00 0.00 61 1011.2
20260507132003 18 167 11.3 24.1 0.00 0.00 0.00 64 1011.2
20260507131106 19 172 11.3 20.9 0.00 0.00 0.00 63 1011.2
20260507130003 19 173 11.3 20.9 0.00 0.00 0.00 61 1011.3
20260507125004 20 169 9.7 22.5 0.00 0.00 0.00 62 1011.2
20260507124003 19 179 9.7 19.3 0.00 0.00 0.00 61 1011.4
20260507123003 20 171 8.0 22.5 0.00 0.00 0.00 60 1011.5
20260507122106 20 168 8.0 16.1 0.00 0.00 0.00 60 1011.5
20260507121004 20 169 9.7 24.1 0.00 0.00 0.00 60 1011.7
20260507120107 20 173 11.3 27.4 0.00 0.00 0.00 59 1011.7
20260507115107 20 167 11.3 22.5 0.00 0.00 0.00 59 1011.7
20260507114106 20 164 11.3 27.4 0.00 0.00 0.00 59 1011.8
20260507113003 20 176 9.7 25.7 0.00 0.00 0.00 60 1011.8
20260507112003 20 170 8.0 22.5 0.00 0.00 0.00 60 1011.8
20260507111107 20 172 9.7 16.1 0.00 0.00 0.00 62 1011.9
20260507110107 20 173 11.3 20.9 0.00 0.00 0.00 62 1011.9
20260507105107 20 175 11.3 27.4 0.00 0.00 0.00 60 1012.0
20260507104003 19 193 9.7 20.9 0.00 0.00 0.00 61 1011.9
20260507103106 19 191 9.7 19.3 0.00 0.00 0.00 60 1012.1
20260507102106 18 188 8.0 19.3 0.00 0.00 0.00 64 1012.2
20260507101004 18 174 6.4 24.1 0.00 0.00 0.00 63 1012.4
20260507100004 18 183 8.0 14.5 0.00 0.00 0.00 66 1012.5
20260507095003 18 206 9.7 22.5 0.00 0.00 0.00 66 1012.6
20260507094003 18 177 8.0 24.1 0.00 0.00 0.00 67 1012.7
20260507093106 17 195 9.7 14.5 0.00 0.00 0.00 68 1012.7
20260507092004 17 170 9.7 20.9 0.00 0.00 0.00 70 1012.7
20260507091004 17 178 9.7 19.3 0.00 0.00 0.00 70 1012.9
20260507090107 16 163 6.4 17.7 0.00 0.00 0.00 72 1012.8
20260507085003 16 163 4.8 11.3 0.00 0.00 0.00 72 1012.8
20260507084106 16 184 3.2 16.1 0.00 0.00 0.00 72 1012.7
20260507083003 16 163 1.6 6.4 0.00 0.00 0.00 75 1012.7
20260507082004 16 169 1.6 8.0 0.00 0.00 0.00 76 1012.7
20260507081107 15 172 1.6 6.4 0.00 0.00 0.00 76 1012.7
20260507080004 15 161 1.6 1.6 0.00 0.00 0.00 78 1012.4
20260507075106 15 173 1.6 8.0 0.00 0.00 0.00 77 1012.5
20260507074106 15 219 0.0 3.2 0.00 0.00 0.00 78 1012.5
20260507073003 15 227 0.0 0.0 0.00 0.00 0.00 80 1012.5
20260507072004 15 227 0.0 3.2 0.00 0.00 0.00 81 1012.5
20260507071004 15 255 0.0 3.2 0.00 0.00 0.00 80 1012.4
20260507070106 15 298 0.0 1.6 0.00 0.00 0.00 81 1012.2
20260507065003 15 342 0.0 4.8 0.00 0.00 0.00 82 1012.2
20260507064106 14 283 0.0 1.6 0.00 0.00 0.00 83 1012.1
20260507063004 14 283 0.0 1.6 0.00 0.00 0.00 85 1011.9
20260507062004 13 283 0.0 1.6 0.00 0.00 0.00 87 1011.9
20260507061003 13 289 0.0 1.6 0.00 0.00 0.00 87 1011.9
20260507060106 13 0 0.0 0.0 0.00 0.00 0.00 87 1011.8
20260507055003 13 301 0.0 0.0 0.00 0.00 0.00 87 1011.8
20260507054003 12 301 0.0 0.0 0.00 0.00 0.00 88 1011.7
20260507053107 12 301 0.0 0.0 0.00 0.00 0.00 88 1011.6
20260507052107 12 0 0.0 0.0 0.00 0.00 0.00 87 1011.6
20260507051106 12 301 0.0 0.0 0.00 0.00 0.00 87 1011.5
20260507050003 12 301 0.0 0.0 0.00 0.00 0.00 86 1011.4
20260507045106 12 0 0.0 0.0 0.00 0.00 0.00 86 1011.2
20260507044004 12 301 0.0 0.0 0.00 0.00 0.00 85 1011.2
20260507043107 12 300 0.0 1.6 0.00 0.00 0.00 84 1011.0
20260507042003 12 298 0.0 1.6 0.00 0.00 0.00 83 1011.0
20260507041106 13 318 0.0 1.6 0.00 0.00 0.00 82 1010.9
20260507040106 13 307 0.0 4.8 0.00 0.00 0.00 82 1010.8
20260507035004 13 293 0.0 1.6 0.00 0.00 0.00 81 1010.7
20260507034107 13 339 0.0 1.6 0.00 0.00 0.00 81 1010.7
20260507033106 13 359 0.0 4.8 0.00 0.00 0.00 81 1010.7
20260507032003 13 267 0.0 4.8 0.00 0.00 0.00 80 1010.5
20260507031003 13 350 0.0 3.2 0.00 0.00 0.00 80 1010.6
20260507030003 13 353 1.6 4.8 0.00 0.00 0.00 79 1010.5
20260507025107 13 245 1.6 9.7 0.00 0.00 0.00 79 1010.5
20260507024107 13 231 1.6 12.9 0.00 0.00 0.00 79 1010.4
20260507023106 13 299 1.6 8.0 0.00 0.00 0.00 79 1010.5
20260507022106 13 265 1.6 11.3 0.00 0.00 0.00 79 1010.5
20260507021003 13 244 0.0 6.4 0.00 0.00 0.00 80 1010.6
20260507020004 13 190 0.0 1.6 0.00 0.00 0.00 79 1010.5
20260507015107 13 190 0.0 1.6 0.00 0.00 0.00 80 1010.4
20260507014003 13 190 1.6 3.2 0.00 0.00 0.00 80 1010.3
20260507013107 13 193 1.6 4.8 0.00 0.00 0.00 79 1010.3
20260507012003 13 245 1.6 8.0 0.00 0.00 0.00 79 1010.4
20260507010004 14 214 0.0 8.0 0.00 0.00 0.00 79 1010.4
20260507005107 14 203 0.0 3.2 0.00 0.00 0.00 79 1010.4
20260507004003 14 187 1.6 6.4 0.00 0.00 0.00 78 1010.5
20260507003106 15 219 1.6 4.8 0.00 0.00 0.00 77 1010.5
20260507002004 15 194 1.6 9.7 0.00 0.00 0.00 76 1010.6
20260507001107 15 208 3.2 9.7 0.00 0.00 0.00 76 1010.5
20260507000004 15 202 6.4 12.9 0.00 0.00 0.00 76 1010.6
20260506235003 15 188 6.4 22.5 0.00 0.00 0.00 76 1010.6
20260506234003 15 215 4.8 14.5 0.00 0.00 0.00 76 1010.8
20260506233106 15 202 4.8 16.1 0.00 0.00 0.00 76 1010.7
20260506232004 15 218 3.2 16.1 0.00 0.00 0.00 77 1010.8
20260506231107 15 239 0.0 6.4 0.00 0.00 0.00 79 1010.9
20260506230107 15 279 1.6 3.2 0.00 0.00 0.00 80 1010.8
20260506225106 15 232 1.6 8.0 0.00 0.00 0.00 79 1010.8
20260506224106 15 213 3.2 12.9 0.00 0.00 0.00 78 1010.6
20260506223107 15 191 4.8 14.5 0.00 0.00 0.00 79 1010.4
20260506222107 15 201 4.8 11.3 0.00 0.00 0.00 79 1010.4
20260506221003 15 211 3.2 16.1 0.00 0.00 0.00 79 1010.3
20260506220049 15 225 3.2 12.9 0.00 0.00 0.00 79 1010.4
20260506215106 15 202 4.8 9.7 0.00 0.00 0.00 79 1010.3
20260506214003 15 199 4.8 11.3 0.00 0.00 0.00 77 1010.2
20260506213004 15 223 3.2 12.9 0.00 0.00 0.00 77 1010.2
20260506212004 15 210 3.2 8.0 0.00 0.00 0.00 77 1010.1
20260506211003 15 198 3.2 9.7 0.00 0.00 0.00 77 1010.0
20260506210106 15 207 3.2 9.7 0.00 0.00 0.00 77 1010.0
20260506205003 15 197 3.2 9.7 0.00 0.00 0.00 76 1009.8
20260506204004 16 225 1.6 12.9 0.00 0.00 0.00 76 1009.8
20260506203107 16 210 3.2 6.4 0.00 0.00 0.00 74 1009.8
20260506202003 16 177 4.8 17.7 0.00 0.00 0.00 74 1009.8
20260506201003 16 194 6.4 14.5 0.00 0.00 0.00 74 1009.7
20260506200107 16 193 6.4 22.5 0.00 0.00 0.00 74 1009.6
20260506195107 16 207 4.8 14.5 0.00 0.00 0.00 75 1009.5
20260506194107 15 204 3.2 16.1 0.00 0.00 0.00 75 1009.5
20260506193003 15 213 0.0 9.7 0.00 0.00 0.00 77 1009.3
20260506192106 15 185 0.0 9.7 0.00 0.00 0.00 77 1009.3
20260506191107 15 160 0.0 6.4 0.00 0.00 0.00 77 1009.2
20260506190004 16 173 0.0 1.6 0.00 0.00 0.00 76 1009.0
20260506185003 16 174 4.8 6.4 0.00 0.00 0.00 75 1008.9
20260506184106 16 193 6.4 20.9 0.00 0.00 0.00 75 1008.9
20260506183003 16 198 1.6 12.9 0.00 0.00 0.00 75 1008.8
20260506182107 16 237 1.6 6.4 0.00 0.00 0.00 75 1008.8
20260506181107 16 188 4.8 16.1 0.00 0.00 0.00 75 1008.8
20260506180004 16 203 6.4 12.9 0.00 0.00 0.00 74 1008.7
20260506175003 16 190 6.4 20.9 0.00 0.00 0.00 74 1008.7
20260506174106 16 191 6.4 20.9 0.00 0.00 0.00 74 1008.8
20260506173003 16 208 6.4 14.5 0.00 0.00 0.00 74 1008.6
20260506172004 16 210 4.8 14.5 0.00 0.00 0.00 74 1008.6
20260506171003 16 201 4.8 11.3 0.00 0.00 0.00 73 1008.6
20260506170003 17 208 4.8 12.9 0.00 0.00 0.00 72 1008.7
20260506165106 17 213 4.8 9.7 0.00 0.00 0.00 71 1008.9